Regional Weather Roundup
Issued by NWS

Home | Current Version | Previous Version | Text Only | Print | Product List | Glossary Off
Versions: 1 2 3 4 5 6 7 8 9 10 11 12 13 14 15 16 17 18 19 20 21 22 23 24 25 26 27 28 29 30 31 32 33 34 35 36 37 38 39 40 41 42 43 44 45 46 47 48 49 50

162
ASUS43 KBIS 202310
RWRND

NORTH DAKOTA REGIONAL WEATHER ROUNDUP
NATIONAL WEATHER SERVICE BISMARCK ND
500 PM CST MON FEB 20 2017

NOTE: "FAIR" INDICATES FEW OR NO CLOUDS BELOW 12,000 FEET WITH NO
SIGNIFICANT WEATHER AND/OR OBSTRUCTIONS TO VISIBILITY.


NDZ001>003-009>011-017-210000-
NORTHWEST NORTH DAKOTA

CITY           SKY/WX    TMP DP  RH WIND       PRES   REMARKS
WILLISTON      FAIR      46  29  51 NW7       29.68F
MINOT          FAIR      47  36  65 SW13      29.67S
MINOT AFB      SUNNY     40  35  82 W8        29.67R
$$

NDZ018>021-031>035-040>046-210000-
SOUTHWEST NORTH DAKOTA

CITY           SKY/WX    TMP DP  RH WIND       PRES   REMARKS
BISMARCK       FAIR      52  36  54 W10       29.75R
DICKINSON      FAIR      52  22  30 W10       29.69F
GARRISON         N/A     45  34  65 NW14      29.70R
HETTINGER ARPT SUNNY     55  23  28 W13       29.75F
$$

NDZ004>008-012>016-024-026-027-054-210000-
NORTHEAST NORTH DAKOTA

CITY           SKY/WX    TMP DP  RH WIND       PRES   REMARKS
GRAND FORKS    CLOUDY    36  31  82 W7        29.65R
GRND FRKS AFB  CLOUDY    36  36 100 W6        29.66R
DEVILS LAKE    FOG       33  32  96 W14       29.68R VSB 1/4
$$

NDZ022-023-025-028>030-036>039-047>053-210000-
SOUTHEAST NORTH DAKOTA

CITY           SKY/WX    TMP DP  RH WIND       PRES   REMARKS
FARGO          CLOUDY    39  37  92 W14       29.68R
JAMESTOWN      FAIR      42  37  82 W14       29.70R
$$





USA.gov is the U.S. government's official web portal to all federal, state and local government web resources and services.